Radiation Dose measured at exhaust stack monitor of Fukushima Daiichi Nuclear Power Station
Date,Time,Unit 5 6 shared exhaust cylinders,Wind Direction,Wind Velocity(m/s)
2023/07/08,00:00,3.7,south-southeast,3.0
2023/07/08,00:10,3.7,south,3.8
2023/07/08,00:20,3.8,south,5.0
2023/07/08,00:30,3.5,south,4.9
2023/07/08,00:40,3.7,south,3.6
2023/07/08,00:50,3.6,south,4.0
2023/07/08,01:00,3.6,south-southwest,2.6
2023/07/08,01:10,3.6,southwest,2.2
2023/07/08,01:20,3.7,south-southwest,3.8
2023/07/08,01:30,3.7,south-southwest,3.3
2023/07/08,01:40,3.8,south,3.3
2023/07/08,01:50,3.6,south,4.2
2023/07/08,02:00,3.7,south,3.8
2023/07/08,02:10,3.8,south,4.6
2023/07/08,02:20,3.5,south,5.4
2023/07/08,02:30,3.5,south,3.4
2023/07/08,02:40,3.7,south,3.2
2023/07/08,02:50,3.6,south,2.0
2023/07/08,03:00,3.5,south,2.0
2023/07/08,03:10,3.6,southwest,2.0
2023/07/08,03:20,3.8,southwest,1.7
2023/07/08,03:30,3.6,south-southwest,3.8
2023/07/08,03:40,3.6,south,3.8
2023/07/08,03:50,3.7,south,3.8
2023/07/08,04:00,3.6,south-southeast,3.3
2023/07/08,04:10,3.8,south,4.5
2023/07/08,04:20,3.6,south,5.9
2023/07/08,04:30,3.7,south-southwest,3.8
2023/07/08,04:40,3.6,south-southwest,3.8
2023/07/08,04:50,3.8,southwest,2.6
2023/07/08,05:00,3.6,south-southwest,2.3
2023/07/08,05:10,3.6,south,3.7
2023/07/08,05:20,3.6,south-southwest,3.7
2023/07/08,05:30,3.6,southwest,3.0
2023/07/08,05:40,3.8,west,2.0
2023/07/08,05:50,3.8,north,0.9
2023/07/08,06:00,3.5,south,2.0
2023/07/08,06:10,3.6,west-northwest,1.5
2023/07/08,06:20,3.7,northwest,1.2
2023/07/08,06:30,3.7,south,0.9
2023/07/08,06:40,3.7,south-southwest,1.2
2023/07/08,06:50,3.5,south-southwest,1.2
2023/07/08,07:00,3.8,south-southwest,1.7
2023/07/08,07:10,3.6,south,2.2
2023/07/08,07:20,3.7,south,2.6
2023/07/08,07:30,3.6,south,3.0
2023/07/08,07:40,3.5,south-southeast,2.6
2023/07/08,07:50,3.6,southeast,2.0
2023/07/08,08:00,3.7,south-southeast,3.7
2023/07/08,08:10,3.7,south,4.6
2023/07/08,08:20,3.4,south,3.4
2023/07/08,08:30,3.6,south-southwest,2.9
2023/07/08,08:40,3.6,west,1.7
2023/07/08,08:50,3.6,southwest,1.7
2023/07/08,09:00,3.6,south,1.4
2023/07/08,09:10,3.7,south,2.5
2023/07/08,09:20,3.8,south,2.6
2023/07/08,09:30,3.5,south,3.2
2023/07/08,09:40,3.6,south-southwest,2.8
2023/07/08,09:50,3.7,south,1.4
2023/07/08,10:00,3.6,-,CALM
2023/07/08,10:10,3.7,northwest,0.8
2023/07/08,10:20,3.7,north-northwest,2.2
2023/07/08,10:30,3.6,north,2.3
2023/07/08,10:40,3.7,north-northeast,2.0
2023/07/08,10:50,3.8,east-southeast,2.8
2023/07/08,11:00,3.7,east,1.7
2023/07/08,11:10,3.7,east,2.0
2023/07/08,11:20,3.7,north-northeast,3.8
2023/07/08,11:30,3.7,north-northeast,7.7
2023/07/08,11:40,3.6,north-northeast,6.9
2023/07/08,11:50,3.7,north,6.3
2023/07/08,12:00,3.6,north,7.2
2023/07/08,12:10,3.7,north,6.4
2023/07/08,12:20,3.5,north,4.9
2023/07/08,12:30,3.8,north,6.1
2023/07/08,12:40,3.7,north,3.6
2023/07/08,12:50,3.6,north,4.2
2023/07/08,13:00,3.7,north-northwest,4.8
2023/07/08,13:10,3.6,north-northwest,5.4
2023/07/08,13:20,3.8,north-northwest,4.7
2023/07/08,13:30,3.7,north-northwest,4.7
2023/07/08,13:40,3.7,north,4.7
2023/07/08,13:50,3.7,north,6.4
2023/07/08,14:00,3.7,north,6.4
2023/07/08,14:10,3.5,north,6.7
2023/07/08,14:20,3.5,north,6.8
2023/07/08,14:30,3.6,north,5.5
2023/07/08,14:40,3.8,north,6.8
2023/07/08,14:50,3.6,north,6.6
2023/07/08,15:00,3.7,north,7.0
2023/07/08,15:10,3.6,north,7.6
2023/07/08,15:20,3.6,north,5.8
2023/07/08,15:30,3.9,north,5.1
2023/07/08,15:40,3.7,north-northwest,6.4
2023/07/08,15:50,3.6,north,6.3
2023/07/08,16:00,3.5,north,5.5
2023/07/08,16:10,3.7,north,6.2
2023/07/08,16:20,3.6,north,4.8
2023/07/08,16:30,3.7,north,4.6
2023/07/08,16:40,3.8,north,4.6
2023/07/08,16:50,3.6,north,5.1
2023/07/08,17:00,3.6,north,4.1
2023/07/08,17:10,3.6,north,3.9
2023/07/08,17:20,3.7,north,4.0
2023/07/08,17:30,3.6,north,3.5
2023/07/08,17:40,3.8,north,3.6
2023/07/08,17:50,3.6,north,3.2
2023/07/08,18:00,3.6,north,2.5
2023/07/08,18:10,3.7,north,3.5
2023/07/08,18:20,3.6,north,3.9
2023/07/08,18:30,3.7,north,3.0
2023/07/08,18:40,3.7,north,3.4
2023/07/08,18:50,3.7,north,3.1
2023/07/08,19:00,3.7,north,3.1
2023/07/08,19:10,3.6,north,3.5
2023/07/08,19:20,3.6,north,3.2
2023/07/08,19:30,3.7,north,3.5
2023/07/08,19:40,3.6,north,3.4
2023/07/08,19:50,3.5,north-northeast,2.3
2023/07/08,20:00,3.5,north,2.2
2023/07/08,20:10,3.8,north,1.2
2023/07/08,20:20,3.7,-,CALM
2023/07/08,20:30,3.7,north,0.9
2023/07/08,20:40,3.7,northeast,0.8
2023/07/08,20:50,3.6,north,1.1
2023/07/08,21:00,3.6,northeast,0.8
2023/07/08,21:10,3.7,north-northeast,0.6
2023/07/08,21:20,3.7,north,1.2
2023/07/08,21:30,3.8,north-northwest,0.9
2023/07/08,21:40,3.6,-,CALM
2023/07/08,21:50,3.6,-,CALM
2023/07/08,22:00,3.5,north-northwest,0.6
2023/07/08,22:10,3.6,-,CALM
2023/07/08,22:20,3.7,south-southeast,0.9
2023/07/08,22:30,3.6,southeast,0.6
2023/07/08,22:40,3.6,-,CALM
2023/07/08,22:50,3.6,southwest,1.1
2023/07/08,23:00,3.6,-,CALM
2023/07/08,23:10,3.7,-,CALM
2023/07/08,23:20,3.7,south,1.5
2023/07/08,23:30,3.6,south,2.2
2023/07/08,23:40,3.5,south,1.2
2023/07/08,23:50,3.7,south,1.7
